| time (UTC) | temp C | wind direction | speed KPH | gust KPH | rain 1hr cm | rain 24hr cm | rain mn cm | humidity % | barometer mb |
| 20260508174003 | 17 | 209 | 12.9 | 20.9 | 0.00 | 0.00 | 0.00 | 30 | 1012.1 |
| 20260508173003 | 16 | 203 | 11.3 | 25.7 | 0.00 | 0.00 | 0.00 | 30 | 1012.2 |
| 20260508172004 | 17 | 270 | 11.3 | 24.1 | 0.00 | 0.00 | 0.00 | 31 | 1012.4 |
| 20260508171003 | 16 | 290 | 16.1 | 27.4 | 0.00 | 0.00 | 0.00 | 31 | 1012.7 |
| 20260508170003 | 16 | 202 | 11.3 | 32.2 | 0.00 | 0.00 | 0.00 | 35 | 1012.7 |
| 20260508165004 | 16 | 234 | 9.7 | 27.4 | 0.00 | 0.00 | 0.00 | 34 | 1012.9 |
| 20260508163004 | 16 | 203 | 14.5 | 29.0 | 0.00 | 0.00 | 0.00 | 37 | 1013.4 |
| 20260508162004 | 16 | 197 | 17.7 | 25.7 | 0.00 | 0.00 | 0.00 | 37 | 1013.5 |
| 20260508161003 | 16 | 213 | 12.9 | 25.7 | 0.00 | 0.00 | 0.00 | 36 | 1013.4 |
| 20260508160004 | 16 | 225 | 11.3 | 22.5 | 0.00 | 0.00 | 0.00 | 36 | 1013.5 |
| 20260508154003 | 15 | 258 | 8.0 | 29.0 | 0.00 | 0.00 | 0.00 | 36 | 1013.8 |
| 20260508153004 | 15 | 240 | 14.5 | 25.7 | 0.00 | 0.00 | 0.00 | 37 | 1014.0 |
| 20260508152004 | 14 | 230 | 4.8 | 22.5 | 0.00 | 0.00 | 0.00 | 41 | 1014.0 |
| 20260508151003 | 13 | 220 | 11.3 | 25.7 | 0.00 | 0.00 | 0.00 | 41 | 1014.3 |
| 20260508150004 | 14 | 210 | 9.7 | 25.7 | 0.00 | 0.00 | 0.00 | 42 | 1014.2 |
| 20260508145003 | 13 | 209 | 14.5 | 25.7 | 0.00 | 0.00 | 0.00 | 44 | 1014.2 |
| 20260508143004 | 13 | 194 | 9.7 | 19.3 | 0.00 | 0.00 | 0.00 | 51 | 1014.4 |
| 20260508142003 | 12 | 187 | 9.7 | 22.5 | 0.00 | 0.00 | 0.00 | 54 | 1014.7 |
| 20260508141003 | 12 | 181 | 4.8 | 22.5 | 0.00 | 0.00 | 0.00 | 57 | 1014.6 |
| 20260508140003 | 11 | 201 | 12.9 | 22.5 | 0.00 | 0.00 | 0.00 | 59 | 1014.7 |
| 20260508135003 | 11 | 196 | 11.3 | 22.5 | 0.00 | 0.00 | 0.00 | 61 | 1014.8 |
| 20260508133004 | 10 | 208 | 11.3 | 22.5 | 0.00 | 0.00 | 0.00 | 63 | 1014.8 |
| 20260508132004 | 10 | 203 | 9.7 | 22.5 | 0.00 | 0.00 | 0.00 | 64 | 1014.8 |
| 20260508130004 | 8 | 216 | 9.7 | 24.1 | 0.00 | 0.00 | 0.00 | 71 | 1014.8 |
| 20260508124003 | 7 | 174 | 8.0 | 19.3 | 0.00 | 0.00 | 0.00 | 74 | 1014.7 |
| 20260508123004 | 7 | 193 | 9.7 | 19.3 | 0.00 | 0.00 | 0.00 | 74 | 1014.7 |
| 20260508122004 | 7 | 195 | 8.0 | 16.1 | 0.00 | 0.00 | 0.00 | 74 | 1014.7 |
| 20260508121003 | 6 | 185 | 6.4 | 12.9 | 0.00 | 0.00 | 0.00 | 75 | 1014.6 |
| 20260508120003 | 6 | 189 | 8.0 | 16.1 | 0.00 | 0.00 | 0.00 | 76 | 1014.8 |
| 20260508115003 | 5 | 190 | 12.9 | 20.9 | 0.00 | 0.00 | 0.00 | 77 | 1014.5 |
| 20260508114004 | 5 | 174 | 9.7 | 12.9 | 0.00 | 0.00 | 0.00 | 77 | 1014.6 |
| 20260508113004 | 4 | 192 | 4.8 | 16.1 | 0.00 | 0.00 | 0.00 | 78 | 1014.8 |
| 20260508110004 | 3 | 129 | 8.0 | 16.1 | 0.00 | 0.00 | 0.00 | 78 | 1014.5 |
| 20260508105003 | 3 | 171 | 9.7 | 14.5 | 0.00 | 0.00 | 0.00 | 77 | 1014.3 |
| 20260508104003 | 3 | 163 | 4.8 | 14.5 | 0.00 | 0.00 | 0.00 | 76 | 1014.3 |
| 20260508103003 | 3 | 163 | 4.8 | 9.7 | 0.00 | 0.00 | 0.00 | 77 | 1014.4 |
| 20260508101003 | 3 | 160 | 3.2 | 11.3 | 0.00 | 0.00 | 0.00 | 77 | 1014.4 |
| 20260508100004 | 3 | 166 | 4.8 | 9.7 | 0.00 | 0.00 | 0.00 | 77 | 1014.5 |
| 20260508095004 | 3 | 176 | 4.8 | 11.3 | 0.00 | 0.00 | 0.00 | 76 | 1014.4 |
| 20260508093003 | 4 | 196 | 6.4 | 12.9 | 0.00 | 0.00 | 0.00 | 75 | 1014.6 |
| 20260508091004 | 4 | 175 | 8.0 | 14.5 | 0.00 | 0.00 | 0.00 | 76 | 1014.4 |
| 20260508090004 | 4 | 140 | 6.4 | 16.1 | 0.00 | 0.00 | 0.00 | 76 | 1014.8 |
| 20260508085004 | 3 | 165 | 4.8 | 12.9 | 0.00 | 0.00 | 0.00 | 77 | 1014.5 |
| 20260508084004 | 3 | 161 | 4.8 | 9.7 | 0.00 | 0.00 | 0.00 | 76 | 1014.6 |
| 20260508083003 | 3 | 160 | 4.8 | 9.7 | 0.00 | 0.00 | 0.00 | 75 | 1014.8 |
| 20260508080003 | 4 | 188 | 8.0 | 14.5 | 0.00 | 0.00 | 0.00 | 73 | 1014.9 |
| 20260508075004 | 4 | 172 | 6.4 | 14.5 | 0.00 | 0.00 | 0.00 | 72 | 1015.1 |
| 20260508074003 | 4 | 193 | 8.0 | 12.9 | 0.00 | 0.00 | 0.00 | 72 | 1015.0 |
| 20260508073004 | 4 | 180 | 8.0 | 12.9 | 0.00 | 0.00 | 0.00 | 71 | 1015.3 |
| 20260508072004 | 4 | 166 | 6.4 | 14.5 | 0.00 | 0.00 | 0.00 | 71 | 1015.1 |
| 20260508071003 | 4 | 165 | 8.0 | 16.1 | 0.00 | 0.00 | 0.00 | 70 | 1015.4 |
| 20260508070003 | 4 | 168 | 8.0 | 16.1 | 0.00 | 0.00 | 0.00 | 70 | 1015.6 |
| 20260508065003 | 4 | 155 | 8.0 | 14.5 | 0.00 | 0.00 | 0.00 | 70 | 1015.4 |
| 20260508064004 | 4 | 183 | 9.7 | 14.5 | 0.00 | 0.00 | 0.00 | 69 | 1015.5 |
| 20260508063004 | 4 | 162 | 8.0 | 14.5 | 0.00 | 0.00 | 0.00 | 69 | 1015.8 |
| 20260508062003 | 4 | 182 | 9.7 | 16.1 | 0.00 | 0.00 | 0.00 | 70 | 1015.7 |
| 20260508061004 | 4 | 165 | 8.0 | 12.9 | 0.00 | 0.00 | 0.00 | 70 | 1015.7 |
| 20260508060003 | 4 | 176 | 9.7 | 19.3 | 0.00 | 0.00 | 0.00 | 69 | 1015.8 |
| 20260508055004 | 5 | 190 | 9.7 | 14.5 | 0.00 | 0.00 | 0.00 | 69 | 1016.0 |
| 20260508054004 | 5 | 190 | 9.7 | 19.3 | 0.00 | 0.00 | 0.00 | 69 | 1015.8 |
| 20260508053004 | 5 | 185 | 8.0 | 16.1 | 0.00 | 0.00 | 0.00 | 69 | 1015.7 |
| 20260508051003 | 4 | 165 | 3.2 | 11.3 | 0.00 | 0.00 | 0.00 | 71 | 1016.2 |
| 20260508050003 | 4 | 185 | 4.8 | 12.9 | 0.00 | 0.00 | 0.00 | 72 | 1016.0 |
| 20260508045004 | 3 | 142 | 4.8 | 9.7 | 0.00 | 0.00 | 0.00 | 74 | 1016.0 |
| 20260508044003 | 4 | 157 | 3.2 | 8.0 | 0.00 | 0.00 | 0.00 | 74 | 1015.9 |
| 20260508043003 | 4 | 147 | 4.8 | 8.0 | 0.00 | 0.00 | 0.00 | 74 | 1016.0 |
| 20260508042004 | 4 | 137 | 6.4 | 9.7 | 0.00 | 0.00 | 0.00 | 74 | 1016.2 |
| 20260508041003 | 4 | 149 | 4.8 | 8.0 | 0.00 | 0.00 | 0.00 | 74 | 1016.0 |
| 20260508040003 | 4 | 123 | 4.8 | 11.3 | 0.00 | 0.00 | 0.00 | 74 | 1016.1 |
| 20260508034004 | 5 | 118 | 4.8 | 9.7 | 0.00 | 0.00 | 0.00 | 74 | 1015.9 |
| 20260508033003 | 5 | 122 | 4.8 | 9.7 | 0.00 | 0.00 | 0.00 | 74 | 1015.9 |
| 20260508032003 | 5 | 117 | 4.8 | 9.7 | 0.00 | 0.00 | 0.00 | 73 | 1015.9 |
| 20260508031003 | 5 | 131 | 6.4 | 12.9 | 0.00 | 0.00 | 0.00 | 72 | 1016.0 |
| 20260508030004 | 5 | 131 | 4.8 | 11.3 | 0.00 | 0.00 | 0.00 | 70 | 1016.0 |
| 20260508025004 | 6 | 120 | 8.0 | 12.9 | 0.00 | 0.00 | 0.00 | 69 | 1015.8 |
| 20260508024004 | 6 | 122 | 8.0 | 9.7 | 0.00 | 0.00 | 0.00 | 69 | 1015.9 |
| 20260508023003 | 6 | 108 | 4.8 | 8.0 | 0.00 | 0.00 | 0.00 | 69 | 1015.7 |
| 20260508022003 | 6 | 96 | 4.8 | 9.7 | 0.00 | 0.00 | 0.00 | 67 | 1015.8 |
| 20260508021004 | 7 | 105 | 4.8 | 9.7 | 0.00 | 0.00 | 0.00 | 65 | 1015.8 |
| 20260508020004 | 7 | 96 | 4.8 | 9.7 | 0.00 | 0.00 | 0.00 | 62 | 1015.8 |
| 20260508015004 | 8 | 97 | 6.4 | 8.0 | 0.00 | 0.00 | 0.00 | 53 | 1015.5 |
| 20260508014003 | 9 | 104 | 4.8 | 4.8 | 0.00 | 0.00 | 0.00 | 40 | 1015.3 |
| 20260508013004 | 10 | 91 | 3.2 | 8.0 | 0.00 | 0.00 | 0.00 | 38 | 1015.7 |
| 20260508012004 | 10 | 28 | 4.8 | 11.3 | 0.00 | 0.00 | 0.00 | 38 | 1015.4 |
| 20260508011003 | 10 | 11 | 6.4 | 16.1 | 0.00 | 0.00 | 0.00 | 37 | 1015.2 |
| 20260508010003 | 10 | 18 | 8.0 | 16.1 | 0.00 | 0.00 | 0.00 | 37 | 1015.3 |
| 20260508005003 | 10 | 18 | 8.0 | 14.5 | 0.00 | 0.00 | 0.00 | 38 | 1015.0 |
| 20260508004003 | 11 | 355 | 6.4 | 12.9 | 0.00 | 0.00 | 0.00 | 37 | 1014.9 |
| 20260508002004 | 11 | 339 | 3.2 | 12.9 | 0.00 | 0.00 | 0.00 | 38 | 1014.7 |
| 20260508001003 | 11 | 326 | 3.2 | 16.1 | 0.00 | 0.00 | 0.00 | 38 | 1014.7 |
| 20260507235004 | 11 | 5 | 6.4 | 14.5 | 0.00 | 0.00 | 0.00 | 38 | 1014.6 |
| 20260507234003 | 11 | 0 | 8.0 | 12.9 | 0.00 | 0.00 | 0.00 | 38 | 1014.9 |
| 20260507233003 | 11 | 326 | 3.2 | 14.5 | 0.00 | 0.00 | 0.00 | 39 | 1014.5 |
| 20260507232003 | 11 | 293 | 4.8 | 14.5 | 0.00 | 0.00 | 0.00 | 39 | 1014.7 |
| 20260507231003 | 11 | 307 | 6.4 | 16.1 | 0.00 | 0.00 | 0.00 | 38 | 1014.7 |
| 20260507230004 | 11 | 330 | 8.0 | 12.9 | 0.00 | 0.00 | 0.00 | 38 | 1015.0 |
| 20260507225003 | 11 | 321 | 8.0 | 20.9 | 0.00 | 0.00 | 0.00 | 38 | 1014.7 |
| 20260507224004 | 11 | 295 | 8.0 | 20.9 | 0.00 | 0.00 | 0.00 | 38 | 1015.0 |
| 20260507223003 | 11 | 225 | 3.2 | 22.5 | 0.00 | 0.00 | 0.00 | 38 | 1015.2 |
| 20260507222004 | 11 | 287 | 11.3 | 20.9 | 0.00 | 0.00 | 0.00 | 39 | 1015.2 |
| 20260507221003 | 11 | 294 | 9.7 | 19.3 | 0.00 | 0.00 | 0.00 | 38 | 1015.2 |
| 20260507220003 | 11 | 325 | 11.3 | 20.9 | 0.00 | 0.00 | 0.00 | 38 | 1015.1 |
| 20260507215004 | 11 | 300 | 8.0 | 16.1 | 0.00 | 0.00 | 0.00 | 38 | 1015.4 |
| 20260507214004 | 11 | 334 | 8.0 | 16.1 | 0.00 | 0.00 | 0.00 | 39 | 1015.4 |
| 20260507213004 | 10 | 306 | 8.0 | 32.2 | 0.00 | 0.00 | 0.00 | 39 | 1015.4 |
| 20260507210003 | 11 | 265 | 8.0 | 25.7 | 0.00 | 0.00 | 0.00 | 39 | 1015.2 |
| 20260507205003 | 11 | 291 | 11.3 | 22.5 | 0.00 | 0.00 | 0.00 | 39 | 1015.3 |
| 20260507204004 | 10 | 303 | 16.1 | 29.0 | 0.00 | 0.00 | 0.00 | 40 | 1015.7 |
| 20260507203004 | 10 | 307 | 16.1 | 33.8 | 0.00 | 0.00 | 0.00 | 39 | 1015.7 |
| 20260507202004 | 11 | 243 | 4.8 | 20.9 | 0.00 | 0.00 | 0.00 | 39 | 1015.6 |
| 20260507201004 | 10 | 288 | 9.7 | 19.3 | 0.00 | 0.00 | 0.00 | 42 | 1015.9 |
| 20260507200004 | 10 | 328 | 14.5 | 24.1 | 0.00 | 0.00 | 0.00 | 40 | 1015.8 |
| 20260507194003 | 11 | 295 | 11.3 | 27.4 | 0.00 | 0.00 | 0.00 | 38 | 1015.9 |
| 20260507193004 | 10 | 252 | 9.7 | 25.7 | 0.00 | 0.00 | 0.00 | 41 | 1016.3 |
| 20260507192003 | 11 | 233 | 12.9 | 22.5 | 0.00 | 0.00 | 0.00 | 40 | 1016.2 |
| 20260507191004 | 11 | 293 | 11.3 | 27.4 | 0.00 | 0.00 | 0.00 | 42 | 1016.2 |
| 20260507190004 | 10 | 288 | 12.9 | 25.7 | 0.00 | 0.00 | 0.00 | 43 | 1016.3 |
| 20260507185004 | 10 | 187 | 9.7 | 29.0 | 0.00 | 0.00 | 0.00 | 45 | 1016.2 |
| 20260507184004 | 10 | 285 | 6.4 | 22.5 | 0.00 | 0.00 | 0.00 | 44 | 1016.4 |
| 20260507183004 | 10 | 229 | 9.7 | 25.7 | 0.00 | 0.00 | 0.00 | 44 | 1016.6 |
| 20260507181004 | 11 | 262 | 11.3 | 22.5 | 0.00 | 0.00 | 0.00 | 43 | 1016.7 |
| 20260507180004 | 10 | 210 | 9.7 | 22.5 | 0.00 | 0.00 | 0.00 | 45 | 1016.9 |
| 20260507175004 | 10 | 279 | 9.7 | 22.5 | 0.00 | 0.00 | 0.00 | 44 | 1017.2 |